Torna al catalogo

CZ-6A DEB

AttivoSSO
NORAD 54970·DEBRIS·🇨🇳 China

Lanciato Nov 11, 2022 da Taiyuan Satellite Launch Center

Loading…

Prossimi Passaggi (prossime 24 ore)

TLE

AggiornatoSource: Space-Track

Epoca: Sep 14, 2026, 04:37 UTC

1 54970U 22151TK  26257.19262492  .00000779  00000-0  48049-3 0  9994
2 54970  98.8759 248.0108 0067658 118.6597 242.1397 14.07223835196699

Traccia CZ-6A DEB in tempo reale con AllMySat

Download on the App Store